Location: Courçay
(47.2523°N, 0.8761°E)
Time: 06:58:30
(UTC+00:00)

Cosmos 841 Rocket - Pass Details

Date: 18 November 2025
Orbit: 742 x 768 km, 74.0° (Epoch: 06 December)

Event Time Altitude Azimuth Distance (km) Brightness Sun altitude
Rises 17:26:17 0° 343° (NNW) 3,248 6.8 -11.6°
Reaches altitude 10° 17:28:55 10° 354° (N) 2,318 5.9 -12.0°
Maximum altitude 17:33:38 32° 57° (ENE) 1,299 4.2 -12.8°
Drops below altitude 10° 17:38:18 10° 120° (ESE) 2,304 5.6 -13.5°
Enters shadow 17:38:53 - 123° (ESE) 2,504 5.8 -13.6°
